Location: *
(51.1248°S, 108.4023°W)
Time: 04:58:17
(UTC+00:00)

SJ-11-01 - Pass Details

Date: 15 June 2021
Orbit: 685 x 700 km, 98.0° (Epoch: 31 July)

Event Time Altitude Azimuth Distance (km) Brightness Sun altitude
Rises 13:39:23 0° 16° (NNE) 3,088 8.2 -14.2°
Reaches altitude 10° 13:41:37 10° 15° (NNE) 2,177 7.3 -13.9°
Maximum altitude 13:46:25 88° 285° (WNW) 719 4.3 -13.2°
Drops below altitude 10° 13:51:16 10° 195° (SSW) 2,199 6.5 -12.4°
Enters shadow 13:53:16 - 194° (SSW) 3,012 7.2 -12.2°
